Regional Weather Roundup
Issued by NWS

Home | Current Version | Previous Version | Graphics & Text | Print | Product List | Glossary On
Versions: 1 2 3 4 5 6 7 8 9 10 11 12 13 14 15 16 17 18 19 20 21 22 23 24 25 26 27 28 29 30 31 32 33 34 35 36 37 38 39 40 41 42 43 44 45 46 47 48 49 50
425
ASUS43 KMKX 231800
RWRWI

WISCONSIN REGIONAL WEATHER ROUNDUP
NATIONAL WEATHER SERVICE MILWAUKEE/SULLIVAN WI
100 PM CDT MON OCT 23 2017

NOTE: "FAIR" INDICATES FEW OR NO CLOUDS BELOW 12,000 FEET WITH NO
SIGNIFICANT WEATHER AND/OR OBSTRUCTIONS TO VISIBILITY.

WIZ001-002-006>008-014>016-023>028-231900-
NORTHWEST WISCONSIN

CITY           SKY/WX    TMP DP  RH WIND       PRES   REMARKS
SUPERIOR ARPT  PTSUNNY   60  43  52 W6        29.69S
ASHLAND        CLOUDY    60  41  49 SW9       29.68F
6HR MIN TEMP:  52; 6HR MAX TEMP:  60;

HAYWARD        PTSUNNY   57  40  52 SW8       29.71F
6HR MIN TEMP:  47; 6HR MAX TEMP:  57;

SIREN          PTSUNNY   60  42  50 W10       29.73S
CUMBERLAND     PTSUNNY   54  37  54 W12       29.73F
RICE LAKE      MOSUNNY   57  40  53 W9        29.74F
CHETEK         MOSUNNY   56  41  58 W7        29.73F
LADYSMITH      CLOUDY    57  42  57 SW7       29.73F
EAU CLAIRE     NOT AVBL
MENOMONIE      CLOUDY    56  42  60 W10       29.74F
NEW RICHMOND   MOSUNNY   59  41  50 W14       29.75F
OSCEOLA        MOSUNNY   61  41  48 W12       29.78F
$$

WIZ003>005-009-010-017-018-231900-
NORTH CENTRAL WISCONSIN

CITY           SKY/WX    TMP DP  RH WIND       PRES   REMARKS
MANITOWISH WTR CLOUDY    53  41  62 S7        29.71F
ARBOR VITAE    MOSUNNY   52  40  64 SW7       29.72F
WOODRUFF       MOSUNNY   52  40  64 SW7       29.72F
RHINELANDER    CLOUDY    55  39  54 SW8       29.73F
6HR MIN TEMP:  41; 6HR MAX TEMP:  55;

EAGLE RIVER    NOT AVBL
LAND O LAKES   PTSUNNY   56  38  50 S7        29.73F
PHILLIPS       MOSUNNY   53  40  61 SW7       29.71F
TOMAHAWK       CLOUDY    54  39  56 S5        29.73F
MEDFORD        PTSUNNY   52  40  64 SW5       29.72F
MERRILL        MOSUNNY   53  41  65 S6        29.74F
$$

WIZ029-030-035-036-043>047-231900-
CENTRAL WISCONSIN

CITY           SKY/WX    TMP DP  RH WIND       PRES   REMARKS
WAUSAU         CLOUDY    53  42  66 S8        29.74F
6HR MIN TEMP:  39; 6HR MAX TEMP:  53;

MOSINEE        PTSUNNY   52  45  76 S8        29.76F
MARSHFIELD     PTSUNNY   55  40  56 SW8       29.73F
6HR MIN TEMP:  40; 6HR MAX TEMP:  55;

STEVENS POINT  CLOUDY    52  38  60 S8        29.76F
WAUPACA        CLOUDY    50  49  98 SE5       29.78F
WAUTOMA        CLOUDY   N/A N/A N/A SE7       29.78F
WISC RAPIDS    MOSUNNY   54  45  71 SW8       29.77F
6HR MIN TEMP:  38; 6HR MAX TEMP:  54;

CAMP DOUGLAS   NOT AVBL
$$

WIZ011>013-019>022-031-037>040-048>050-231900-
NORTHEAST WISCONSIN

CITY           SKY/WX    TMP DP  RH WIND       PRES   REMARKS
ANTIGO         CLOUDY    49  40  68 S9        29.76F
SHAWANO        CLOUDY    48  47  96 SE3       29.78F
OCONTO         CLOUDY    48  46  91 CALM      29.80F
STURGEON BAY   MOSUNNY   53  43  68 W3        29.80F
6HR MIN TEMP:  41; 6HR MAX TEMP:  53; 6HR PCP:  0.01;

GREEN BAY      CLOUDY    51  48  89 SE5       29.79F
6HR MIN TEMP:  43; 6HR MAX TEMP:  51;

MANITOWOC      CLOUDY    53  43  68 NW5       29.80F
6HR MIN TEMP:  43; 6HR MAX TEMP:  53;

APPLETON       PTSUNNY   52  43  71 SE5       29.77F
CLINTONVILLE   NOT AVBL
OSHKOSH        CLOUDY    53  45  74 SE7       29.78F
6HR MIN TEMP:  39; 6HR MAX TEMP:  53;

$$

WIZ032>034-041-042-053>061-231900-
SOUTHWEST WISCONSIN

CITY           SKY/WX    TMP DP  RH WIND       PRES   REMARKS
LA CROSSE      CLOUDY    59  43  55 NW7       29.76S
6HR MIN TEMP:  48; 6HR MAX TEMP:  59;

SPARTA         MOSUNNY   56  42  61 SW6       29.76S
VIROQUA        CLOUDY    54  43  67 W7        29.78R
BOSCOBEL       MOSUNNY   57  47  69 W8        29.78F
6HR MIN TEMP:  41; 6HR MAX TEMP:  57;

PRAIRIE DU CHI CLOUDY    56  41  55 W5        29.79S
PLATTEVILLE    CLOUDY    56  48  75 S9        29.81F
$$

WIZ056-057-062-063-064-067-068-231900-
SOUTH CENTRAL WISCONSIN

CITY           SKY/WX    TMP DP  RH WIND       PRES   REMARKS
REEDSBURG      CLOUDY    53  43  68 S10       29.78S
BARABOO/DELLS  CLOUDY    53  41  62 S9        29.78F
LONE ROCK      NOT AVBL
MINERAL POINT  CLOUDY    55  50  82 S7        29.79F
MADISON        CLOUDY    55  42  61 S6        29.78F
6HR MIN TEMP:  41; 6HR MAX TEMP:  55;

MIDDLETON      CLOUDY    57  39  51 S6        29.80F
WATERTOWN      PTSUNNY   51  43  74 CALM      29.81F
MONROE         CLOUDY    54  41  62 S3        29.81F
JANESVILLE     CLOUDY    54  45  71 CALM      29.80F
$$

WIZ051-052-058>065-066-070>072-231900-
SOUTHEAST WISCONSIN

CITY           SKY/WX    TMP DP  RH WIND       PRES   REMARKS
MILWAUKEE      CLOUDY    54  50  86 NW6       29.79F
6HR MIN TEMP:  50; 6HR MAX TEMP:  54; 6HR PCP:  0.01;

WAUKESHA       SUNNY     50  45  81 W6        29.81F
MILWAUKEE/TIMM MOSUNNY   52  46  82 CALM      29.80F
RACINE         CLOUDY    52  51  97 NW5       29.79F
6HR MIN TEMP:  50; 6HR MAX TEMP:  53; 6HR PCP:  0.02;

BURLINGTON     CLOUDY    50  50  99 CALM      29.80F
KENOSHA        CLOUDY    52  48  86 NW7       29.78F
6HR MIN TEMP:  50; 6HR MAX TEMP:  52; 6HR PCP:  0.02;

FOND DU LAC    CLOUDY    53  44  71 S3        29.79F
6HR MIN TEMP:  43; 6HR MAX TEMP:  53;

SHEBOYGAN      CLOUDY    53  48  83 W3        29.79F
6HR MIN TEMP:  44; 6HR MAX TEMP:  53; 6HR PCP: TRACE;

WEST BEND      PTSUNNY   50  45  81 CALM      29.81F
JUNEAU         PTSUNNY   50  42  71 CALM      29.82F
$$

LSZ147-162-231900-
LAKE SUPERIOR

STATION/POSITION TIME  TEMP    WIND        PRES    WAVE
                       AIR SEA DIR/SP/G            HT/PER
                 (UTC) (F)     (DEG/KT/KT) (MB)    (FT/S)
W MID LAKE BUOY  1650   53 51              1005.5F   3/ 5
DEVILS ISLAND    1700   56     240/ 10/ 12 1005.4F
SAXON HARBOR     1740   59     230/  7/ 11 1005.1F
$$

LMZ867-665-643>646-231900-
LAKE MICHIGAN

STATION/POSITION TIME  TEMP    WIND        PRES    WAVE
                       AIR SEA DIR/SP/G            HT/PER
                 (UTC) (F)     (DEG/KT/KT) (MB)    (FT/S)
S GREEN BAY BUOY 1730   51 58  240/  6/  6 1009.2F
N MID LAKE BUOY  1650   53 57  100/  2/  4 1010.1F   0
NORTHPORT PIER   1740   53      90/  2/  3 1008.8F
KEWAUNEE LAKESHO 1724   51      90/  2/  2 1008.8
SHEBOYGAN LAKESH 1700   49     340/  5/  5 1009.5F
PORT WASHINGTON  1730   54     290/  2/  3 1010.2F
MILWAUKEE LAKESH 1730   53     300/  4/  5   N/A
S MID LAKE BUOY  1650   54 59   20/ 14/ 16 1008.4F   3/ 4
KENOSHA   LAKESH 1700   52     310/  8/ 10 1009.5
$$

TC  - TEMPERATURE IN CELSIUS
VSB - VISIBILITY IN STATUTE MILES
WCI - WIND CHILL INDEX
HX  - HEAT INDEX





USA.gov is the U.S. government's official web portal to all federal, state and local government web resources and services.